Regional Weather Roundup
Issued by NWS Spokane, WA

Home | Current Version | Previous Version | Text Only | Print | Product List | Glossary On
Versions: 1 2 3 4 5 6 7 8 9 10 11 12 13 14 15 16 17 18 19 20 21 22 23 24 25 26 27 28 29 30 31 32 33 34 35 36 37 38 39 40 41 42 43 44 45 46 47 48 49 50
000
NZUS01 KOTX 262110
RWROTX
EASTERN WASHINGTON/NORTHERN IDAHO ROUNDUP
NATIONAL WEATHER SERVICE, SPOKANE WA
100 PM PST MON JAN 26 2015

Note: "fair" indicated few or no clouds below 12,000 feet with no
significant weather and/or obstructions to visibility.

...NORTHEAST WASHINGTON AND NORTHERN IDAHO PANHANDLE...

CITY           SKY/WX    TMP DP  RH WIND       PRES   REMARKS
SPOKANE INTL   PTSUNNY   40  39  97 NE5       30.03F
SPOKANE DOWNTO SUNNY     46  39  76 CALM      30.05F
COEUR D ALENE  MOSUNNY   43  39  87 N7        30.03F
DEER PARK      SUNNY     41  38  89 S3        30.04F
SANDPOINT      FOG       36  36 100 CALM      30.07F VSB<1/4
BONNERS FERRY  FOG       36  36 100 SW3       30.04F VSB<1/4

...SOUTHEAST WASHINGTON AND SOUTHERN IDAHO PANHANDLE...

CITY           SKY/WX    TMP DP  RH WIND       PRES   REMARKS
WALLA WALLA    CLOUDY    37  35  92 CALM      30.06F FOG
PULLMAN/MOSCOW SUNNY     57  41  55 SE12      30.07F
LEWISTON       SUNNY     61  39  44 S17       30.03F
LOWELL           N/A     50  39  66 N3        30.12F

...COLUMBIA BASIN...

CITY           SKY/WX    TMP DP  RH WIND       PRES   REMARKS
EPHRATA        SUNNY     48  38  68 VRB3      30.03F
MOSES LAKE     MOSUNNY   41  38  89 SE6       30.05S
TRI CITIES     CLOUDY    40  39  97 CALM      30.10F FOG
HERMISTON      CLOUDY    38  36  92 CALM      30.08F FOG
PENDLETON      FOG       36  36 100 NW5       30.04F VSB<1/4

...EAST SLOPES CASCADES...

CITY           SKY/WX    TMP DP  RH WIND       PRES   REMARKS
THE DALLES     CLOUDY    44  38  79 CALM      30.08F
YAKIMA         FOG       37  35  92 CALM      30.07F VSB 3/4
ELLENSBURG     FOG       37  35  92 CALM      30.03F VSB<1/4
WENATCHEE      CLOUDY    35  33  92 CALM      30.05F FOG
OMAK           FOG       33  32  96 SE5       30.06F VSB 1/4 WCI  29

...SOUTHERN BRITISH COLUMBIA...

CITY           SKY/WX    TMP DP  RH WIND       PRES   REMARKS
PENTICTON      PTSUNNY   39  36  87 S10       30.01F
CASTLEGAR      CLOUDY    36  36 100 S5        30.04F FOG
CRANBROOK      PTSUNNY   45  32  61 NW2       29.96F

...WESTERN MONTANA...

CITY           SKY/WX    TMP DP  RH WIND       PRES   REMARKS
MISSOULA       SUNNY     40  31  70 NW5       30.09F

...NEIGHBORING CITIES...

CITY           SKY/WX    TMP DP  RH WIND       PRES   REMARKS
SEATTLE        MOSUNNY   58  46  64 SW7       29.95F
CALGARY        PTSUNNY   54  28  37 SW5       29.79F



USA.gov is the U.S. government's official web portal to all federal, state and local government web resources and services.